Regional Weather Roundup
Issued by NWS

Home | Current Version | Previous Version | Text Only | Print | Product List | Glossary Off
Versions: 1 2 3 4 5 6 7 8 9 10 11 12 13 14 15 16 17 18 19 20 21 22 23 24 25 26 27 28 29 30 31 32 33 34 35 36 37 38 39 40 41 42 43 44 45 46 47 48 49 50

000
ASUS43 KIND 211559
RWRIN

WEATHER ROUNDUP FOR INDIANA
NATIONAL WEATHER SERVICE INDIANAPOLIS IN
1200 PM EDT THU AUG 21 2014

NOTE: "FAIR" INDICATES FEW OR NO CLOUDS BELOW 12,000 FEET WITH NO
SIGNIFICANT WEATHER AND/OR OBSTRUCTIONS TO VISIBILITY.

* - STATION DOES NOT REPORT WEATHER SUCH AS PRECIPITATION OR FOG.

+ - STATION NOT QUALITY CONTROLLED BY THE NATIONAL WEATHER SERVICE.
    USE DATA WITH CAUTION...ESPECIALLY DEWPOINT AND RELATIVE
    HUMIDITY OBSERVATIONS.

INZ001>003-010>013-019-020-211700-
NORTHWEST INDIANA

CITY           SKY/WX    TMP DP  RH WIND       PRES   REMARKS
GARY /AIRPORT/ CLOUDY    75  72  88 S7        29.95F
KNOX *+        CLOUDY    71  69  93 S8        29.97S
MONTICELLO +   CLOUDY    74  72  93 S5        30.00F
VALPARAISO     LGT RAIN  71  70  96 S8        29.97F

$$

LMZ046-743>745-211700-
SOUTHERN LAKE MICHIGAN

STATION/POSITION TIME  TEMP WIND        PRES
                       AIR  DIR/SP/G
                 (UTC) (F)  (DEG/KT/KT) (MB)
BURNS HARBOR     1500   73  140/  2/  5   N/A
MICHIGAN CITY    1500   71  170/  2/  3   N/A

$$

INZ004-005-014>016-021>024-211700-
NORTH CENTRAL INDIANA

CITY           SKY/WX    TMP DP  RH WIND       PRES   REMARKS
ELKHART        CLOUDY    73  68  83 E5        29.99
GOSHEN         CLOUDY    77  69  76 CALM      29.99F
SOUTH BEND     CLOUDY    74  69  85 NE3       29.97F
WARSAW +       RAIN      72  70  94 CALM      30.01F

$$

INZ006>009-017-018-025>027-211700-
NORTHEAST INDIANA

CITY           SKY/WX    TMP DP  RH WIND       PRES   REMARKS
ANGOLA *+      CLOUDY    75  70  83 W6        30.03S
FORT WAYNE     LGT RAIN  71  70  96 S9        30.02F

$$

INZ028-029-035-036-043>045-051>053-211700-
WEST CENTRAL INDIANA

CITY           SKY/WX    TMP DP  RH WIND       PRES   REMARKS
GREENCASTLE +  PTSUNNY   81  72  74 W5        30.05R
LAFAYETTE      CLOUDY    77  72  84 W7        30.02R
TERRE HAUTE    PTSUNNY   83  73  72 W10       30.04R

$$

INZ030>032-037>040-046>048-054>057-064-065-211700-
CENTRAL INDIANA

CITY           SKY/WX    TMP DP  RH WIND       PRES   REMARKS
COLUMBUS       PTSUNNY   77  73  88 SW6       30.06R
FRANKFORT +    CLOUDY    77  77 100 S3        30.05R
INDIANAPOLIS   CLOUDY    76  70  82 VRB3      30.05R
-EAGLE CREEK   CLOUDY    76  69  79 CALM      30.05R
KOKOMO *+      CLOUDY    70  68  94 SE9       30.05S
MT COMFORT *+  CLOUDY    72 N/A N/A SE6       30.07S
SHELBYVILLE    CLOUDY    75  32  20 VRB3      30.07R HAZE

$$

INZ033-034-041-042-049-050-058-059-211700-
EAST CENTRAL INDIANA

CITY           SKY/WX    TMP DP  RH WIND       PRES   REMARKS
MUNCIE         TSTM      69  67  93 S7G18     30.07F VSB 1/2

$$

INZ060-061-067>069-081>083-085>088-211700-
SOUTHWEST INDIANA

CITY           SKY/WX    TMP DP  RH WIND       PRES   REMARKS
EVANSVILLE     PTSUNNY   86  75  69 SW13      30.07S HX  95

$$

INZ062-063-066-070>080-084-089>092-211700-
SOUTH CENTRAL AND SOUTHEAST INDIANA

CITY           SKY/WX    TMP DP  RH WIND       PRES   REMARKS
BLOOMINGTON    PTSUNNY   82  74  76 W10       30.06R

$$




USA.gov is the U.S. government's official web portal to all federal, state and local government web resources and services.